Flag for Germany Weather past 2 weeks in Friedrichshafen, Baden-Württemberg, Germany

Now
64 °F

Overcast.


Feels Like: 64 °F
Forecast: 55 / 69 °F
Wind: 2 mph from North

Location: Friedrichshafen Airport

Current Time: Aug 29, 2014 at 1:04:32 PM

Latest Report: Aug 29, 2014 at 12:20 PM


Visibility: N/A

Pressure: 30.09 "Hg

Humidity: 83%

Dew point: 59 °F

Location of FriedrichshafenLocation

Historic Weather in Friedrichshafen — Graph

°F

Friedrichshafen temperature yesterday

Maximum temperature yesterday: 73 °F (at 4:20 PM)
Minimum temperature yesterday: 54 °F (at 1:50 AM)
Average temperature yesterday: 61 °F

Past Weeks' High & Low Weather Summary

 TemperatureHumidityPressure
High73 °F (Aug 28, 4:20 PM)94% (Aug 15, 3:50 AM)30.21 "Hg (Aug 15, 3:50 AM)
Low45 °F (Aug 17, 6:20 AM)30% (Aug 21, 6:20 PM)29.77 "Hg (Aug 26, 6:50 PM)
Average59 °F71%30.02 "Hg
* Reported Aug 14 11:20 AM — Aug 29 11:50 AM, Friedrichshafen, Weather by CustomWeather, © 2014

Note: Actual official high and low records may vary slightly from our data, if they occured in-between our weather recording intervals... More about our weather records

Advertising

Friedrichshafen weather history for previous 24 hours

 ConditionsComfort  
Time TempWeatherWind HumidityBarometerVisibility
11:50 AM
Aug 29
64 °FSprinkles. Overcast.3 mph83%30.09 "HgN/A
11:20 AM63 °FOvercast.6 mph77%30.09 "HgN/A
10:50 AM64 °FMore clouds than sun.2 mph78%30.09 "HgN/A
10:20 AM63 °FSprinkles. Mostly cloudy.2 mph83%30.09 "HgN/A
9:50 AM63 °FLight rain. Overcast.1 mph83%30.09 "HgN/A
9:20 AM61 °FSunny.1 mph83%30.09 "Hg10 mi
8:50 AM61 °FSunny.2 mph83%30.07 "Hg10 mi
8:20 AM59 °FSunny.2 mph82%30.07 "Hg10 mi
7:50 AM57 °FSunny.3 mph88%30.07 "Hg10 mi
7:20 AM55 °FClear.2 mph94%30.07 "Hg10 mi
6:50 AM55 °FClear.1 mph94%30.07 "Hg10 mi
6:20 AM55 °FClear.1 mph88%30.07 "Hg10 mi
5:50 AM54 °FClear.1 mph94%30.07 "Hg10 mi
5:20 AM54 °FCool.2 mph94%30.07 "Hg1 mi
4:50 AM55 °FClear.3 mph88%30.07 "Hg10 mi
4:20 AM55 °FPassing clouds.3 mph88%30.07 "HgN/A
3:50 AM55 °FPartly cloudy.No wind94%30.07 "HgN/A
3:20 AM55 °FClear.No wind94%30.07 "Hg10 mi
2:50 AM55 °FCool.1 mph94%30.09 "HgN/A
2:20 AM55 °FCool.No wind88%30.09 "Hg2 mi
1:50 AM57 °FCool.1 mph88%30.09 "HgN/A
1:20 AM57 °FClear.2 mph88%30.09 "Hg10 mi
12:50 AM57 °FClear.No wind88%30.09 "Hg10 mi
12:20 AM57 °FClear.No wind88%30.09 "Hg10 mi
11:50 PM
Aug 28
57 °FClear.1 mph88%30.09 "Hg10 mi
11:20 PM59 °FPassing clouds.1 mph82%30.07 "HgN/A
10:50 PM59 °FCool.1 mph88%30.07 "HgN/A
10:20 PM61 °FPassing clouds.2 mph83%30.07 "HgN/A
9:50 PM59 °FPartly cloudy.2 mph82%30.07 "HgN/A
9:20 PM59 °FPassing clouds.2 mph82%30.07 "HgN/A
8:50 PM63 °FSunny.No wind73%30.07 "Hg10 mi
8:20 PM63 °FSunny.No wind73%30.07 "Hg10 mi
7:50 PM66 °FSunny.No wind60%30.07 "Hg10 mi
7:20 PM68 °FSunny.1 mph64%30.07 "Hg10 mi
6:50 PM70 °FSunny.3 mph57%30.07 "Hg10 mi
6:20 PM72 °FPassing clouds.5 mph50%30.07 "HgN/A
5:50 PM72 °FPassing clouds.5 mph50%30.07 "HgN/A
5:20 PM73 °FPassing clouds.5 mph47%30.07 "HgN/A
4:50 PM73 °FPassing clouds.6 mph47%30.07 "HgN/A
4:20 PM73 °FPassing clouds.6 mph47%30.07 "HgN/A
3:50 PM72 °FPassing clouds.6 mph61%30.07 "HgN/A
3:20 PM72 °FPassing clouds.7 mph53%30.07 "HgN/A
2:50 PM72 °FPassing clouds.6 mph61%30.07 "HgN/A
2:20 PM72 °FPassing clouds.3 mph57%30.07 "HgN/A
1:50 PM72 °FPassing clouds.3 mph57%30.07 "HgN/A
1:20 PM70 °FPassing clouds.3 mph60%30.09 "HgN/A
Weather by CustomWeather, © 2014

See weather overviewHow to use our weather pages